• In Deutschland
  • Länderverzeichnis
  • Für 7 Tage
  • Wassertemperatur
  • Satellitenkarten
  • Wetterkarte
  • Widgets
  • user-avatar
    Anmelden

    Stündliche Wetter Kaprun

    Heute, 17 Januar, Mittwoch

    Zeit Temperatur Niederschläge Wind Luftdruck Luftfeuchtigkeit
    00:00 -6°C° 1 mm 1 m/S 583 mmHg 94%
    01:00 -6°C° 1 mm 1 m/S 583 mmHg 94%
    02:00 -6°C° 0,4 mm 1 m/S 582 mmHg 93%
    03:00 -7°C° 0,4 mm 2 m/S 581 mmHg 92%
    04:00 -8°C° 0,4 mm 2 m/S 581 mmHg 91%
    05:00 -8°C° 0,4 mm 2 m/S 580 mmHg 91%
    06:00 -9°C° 0,4 mm 2 m/S 580 mmHg 91%
    07:00 -10°C° 0,4 mm 2 m/S 579 mmHg 91%
    08:00 -9°C° 1,4 mm 2 m/S 580 mmHg 92%
    09:00 -10°C° 1,4 mm 3 m/S 581 mmHg 93%
    10:00 -10°C° 1,4 mm 3 m/S 581 mmHg 93%
    11:00 -10°C° 0,8 mm 3 m/S 581 mmHg 91%
    12:00 -12°C° 0,8 mm 4 m/S 582 mmHg 89%
    13:00 -12°C° 0,8 mm 4 m/S 582 mmHg 87%
    14:00 -14°C° 0,7 mm 4 m/S 582 mmHg 88%
    15:00 -14°C° 0,7 mm 5 m/S 583 mmHg 88%
    16:00 -15°C° 0,7 mm 5 m/S 583 mmHg 89%
    17:00 -15°C° 0,6 mm 5 m/S 584 mmHg 90%
    18:00 -15°C° 0,6 mm 5 m/S 584 mmHg 92%
    19:00 -15°C° 0,6 mm 4 m/S 585 mmHg 93%
    20:00 -15°C° 0,8 mm 4 m/S 585 mmHg 94%
    21:00 -15°C° 0,8 mm 4 m/S 586 mmHg 94%
    22:00 -15°C° 0,8 mm 4 m/S 586 mmHg 94%
    23:00 -15°C° 0,9 mm 4 m/S 587 mmHg 94%

    Morgen, 18 Januar, Donnerstag

    Zeit Temperatur Niederschläge Wind Luftdruck Luftfeuchtigkeit
    00:00 -15°C° 0,9 mm 4 m/S 587 mmHg 95%
    01:00 -15°C° 0,9 mm 4 m/S 588 mmHg 95%
    02:00 -14°C° 0,8 mm 3 m/S 588 mmHg 95%
    03:00 -14°C° 0,8 mm 3 m/S 588 mmHg 95%
    04:00 -13°C° 0,8 mm 3 m/S 589 mmHg 95%
    05:00 -13°C° 0,5 mm 2 m/S 589 mmHg 94%
    06:00 -13°C° 0,5 mm 2 m/S 589 mmHg 94%
    07:00 -13°C° 0,5 mm 2 m/S 589 mmHg 93%
    08:00 -12°C° 0,5 mm 2 m/S 589 mmHg 93%
    09:00 -10°C° 0,5 mm 2 m/S 589 mmHg 92%
    10:00 -10°C° 0,5 mm 2 m/S 589 mmHg 92%
    11:00 -9°C° 0,7 mm 2 m/S 589 mmHg 91%
    12:00 -7°C° 0,7 mm 2 m/S 589 mmHg 90%
    13:00 -6°C° 0,7 mm 2 m/S 589 mmHg 90%
    14:00 -6°C° 0,8 mm 2 m/S 588 mmHg 90%
    15:00 -6°C° 0,8 mm 2 m/S 588 mmHg 91%
    16:00 -6°C° 0,8 mm 2 m/S 588 mmHg 92%
    17:00 -6°C° 0,3 mm 2 m/S 587 mmHg 91%
    18:00 -6°C° 0,3 mm 2 m/S 587 mmHg 90%
    19:00 -7°C° 0,3 mm 2 m/S 587 mmHg 89%
    20:00 -7°C° 0,4 mm 2 m/S 586 mmHg 89%
    21:00 -7°C° 0,4 mm 2 m/S 586 mmHg 89%
    22:00 -7°C° 0,4 mm 2 m/S 586 mmHg 90%
    23:00 -7°C° 0,7 mm 2 m/S 586 mmHg 90%

    übermorgen, 19 Januar, Freitag

    Zeit Temperatur Niederschläge Wind Luftdruck Luftfeuchtigkeit
    00:00 -6°C° 0,7 mm 2 m/S 586 mmHg 91%
    01:00 -6°C° 0,7 mm 2 m/S 586 mmHg 92%
    02:00 -6°C° 0,3 mm 2 m/S 586 mmHg 91%
    03:00 -6°C° 0,3 mm 2 m/S 586 mmHg 90%
    04:00 -7°C° 0,3 mm 2 m/S 586 mmHg 90%
    05:00 -7°C° 1 mm 2 m/S 586 mmHg 92%
    06:00 -7°C° 1 mm 2 m/S 586 mmHg 93%
    07:00 -7°C° 1 mm 2 m/S 587 mmHg 95%
    08:00 -7°C° 0,7 mm 2 m/S 587 mmHg 95%
    09:00 -7°C° 0,7 mm 2 m/S 587 mmHg 95%
    10:00 -7°C° 0,7 mm 2 m/S 587 mmHg 95%
    11:00 -8°C° 0,5 mm 2 m/S 587 mmHg 94%
    12:00 -8°C° 0,5 mm 2 m/S 587 mmHg 94%
    13:00 -8°C° 0,5 mm 2 m/S 587 mmHg 93%
    14:00 -8°C° 0,4 mm 2 m/S 587 mmHg 94%
    15:00 -9°C° 0,4 mm 2 m/S 587 mmHg 94%
    16:00 -9°C° 0,4 mm 2 m/S 587 mmHg 94%
    17:00 -10°C° 0,2 mm 2 m/S 586 mmHg 94%
    18:00 -12°C° 0,2 mm 2 m/S 586 mmHg 94%
    19:00 -13°C° 0,2 mm 2 m/S 586 mmHg 94%
    20:00 -13°C° 0,1 mm 2 m/S 586 mmHg 94%
    21:00 -13°C° 0,1 mm 2 m/S 586 mmHg 93%
    22:00 -14°C° 0,1 mm 2 m/S 586 mmHg 93%
    23:00 -14°C° 0,1 mm 2 m/S 586 mmHg 92%

    20 Januar, Samstag

    Zeit Temperatur Niederschläge Wind Luftdruck Luftfeuchtigkeit
    00:00 -13°C° 0,1 mm 1 m/S 586 mmHg 92%
    01:00 -13°C° 0,1 mm 1 m/S 586 mmHg 91%
    02:00 -13°C° 0,1 mm 1 m/S 585 mmHg 90%
    03:00 -13°C° 0,1 mm 1 m/S 585 mmHg 90%
    04:00 -13°C° 0,1 mm 1 m/S 585 mmHg 89%
    05:00 -13°C° 0,2 mm 1 m/S 585 mmHg 89%
    06:00 -13°C° 0,2 mm 1 m/S 585 mmHg 89%
    07:00 -15°C° 0,2 mm 2 m/S 585 mmHg 89%
    08:00 -12°C° 0,5 mm 1 m/S 586 mmHg 91%
    09:00 -11°C° 0,5 mm 1 m/S 586 mmHg 92%
    10:00 -11°C° 0,5 mm 1 m/S 587 mmHg 93%
    11:00 -10°C° 0,5 mm 1 m/S 587 mmHg 92%
    12:00 -10°C° 0,5 mm 1 m/S 587 mmHg 91%
    13:00 -9°C° 0,5 mm 1 m/S 587 mmHg 90%
    14:00 -10°C° 0,3 mm 1 m/S 587 mmHg 91%
    15:00 -10°C° 0,3 mm 1 m/S 586 mmHg 92%
    16:00 -11°C° 0,3 mm 1 m/S 586 mmHg 93%
    17:00 -12°C° 0,1 mm 1 m/S 586 mmHg 92%
    18:00 -13°C° 0,1 mm 1 m/S 586 mmHg 92%
    19:00 -13°C° 0,1 mm 1 m/S 585 mmHg 92%
    20:00 -14°C° 0 mm 1 m/S 585 mmHg 90%
    21:00 -15°C° 0 mm 1 m/S 585 mmHg 88%
    22:00 -15°C° 0 mm 1 m/S 585 mmHg 87%
    23:00 -17°C° 0 mm 2 m/S 585 mmHg 86%

    21 Januar, Sonntag

    Zeit Temperatur Niederschläge Wind Luftdruck Luftfeuchtigkeit
    00:00 -18°C° 0 mm 2 m/S 585 mmHg 85%
    01:00 -18°C° 0 mm 2 m/S 585 mmHg 84%
    02:00 -18°C° 0 mm 2 m/S 586 mmHg 85%
    03:00 -19°C° 0 mm 2 m/S 586 mmHg 86%
    04:00 -19°C° 0 mm 2 m/S 586 mmHg 86%
    05:00 -19°C° 0,1 mm 2 m/S 587 mmHg 88%
    06:00 -19°C° 0,1 mm 2 m/S 587 mmHg 89%
    07:00 -18°C° 0,1 mm 2 m/S 588 mmHg 90%
    08:00 -17°C° 0,1 mm 2 m/S 589 mmHg 89%
    09:00 -16°C° 0,1 mm 2 m/S 590 mmHg 89%
    10:00 -15°C° 0,1 mm 2 m/S 591 mmHg 88%
    11:00 -14°C° 0,1 mm 2 m/S 591 mmHg 85%
    12:00 -13°C° 0,1 mm 2 m/S 592 mmHg 82%
    13:00 -12°C° 0,1 mm 2 m/S 592 mmHg 79%
    14:00 -13°C° 0 mm 2 m/S 592 mmHg 81%
    15:00 -11°C° 0 mm 1 m/S 592 mmHg 84%
    16:00 -12°C° 0 mm 1 m/S 592 mmHg 86%
    17:00 -13°C° 0 mm 1 m/S 591 mmHg 85%
    18:00 -15°C° 0 mm 1 m/S 591 mmHg 83%
    19:00 -16°C° 0 mm 1 m/S 590 mmHg 82%
    20:00 -15°C° 0,1 mm 1 m/S 591 mmHg 82%
    21:00 -15°C° 0,1 mm 1 m/S 591 mmHg 83%
    22:00 -14°C° 0,1 mm 1 m/S 591 mmHg 83%
    23:00 -13°C° 0,5 mm 1 m/S 591 mmHg 86%

    22 Januar, Montag

    Zeit Temperatur Niederschläge Wind Luftdruck Luftfeuchtigkeit
    00:00 -13°C° 0,5 mm 1 m/S 591 mmHg 89%
    01:00 -14°C° 0,5 mm 2 m/S 591 mmHg 92%
    02:00 -13°C° 1,5 mm 2 m/S 591 mmHg 93%
    03:00 -13°C° 1,5 mm 2 m/S 590 mmHg 95%
    04:00 -12°C° 1,5 mm 2 m/S 590 mmHg 96%
    05:00 -10°C° 2,4 mm 2 m/S 590 mmHg 96%
    06:00 -10°C° 2,4 mm 2 m/S 590 mmHg 96%
    07:00 -9°C° 2,4 mm 2 m/S 590 mmHg 95%
    08:00 -8°C° 1,7 mm 2 m/S 591 mmHg 96%
    09:00 -7°C° 1,7 mm 2 m/S 592 mmHg 96%
    10:00 -6°C° 1,7 mm 2 m/S 592 mmHg 97%
    11:00 -5°C° 0,9 mm 2 m/S 592 mmHg 97%
    12:00 -4°C° 0,9 mm 2 m/S 593 mmHg 97%
    13:00 -4°C° 0,9 mm 3 m/S 593 mmHg 97%
    14:00 -4°C° 0,3 mm 3 m/S 593 mmHg 96%
    15:00 -4°C° 0,3 mm 3 m/S 594 mmHg 95%
    16:00 -4°C° 0,3 mm 3 m/S 594 mmHg 95%
    17:00 -4°C° 0,2 mm 2 m/S 594 mmHg 95%
    18:00 -4°C° 0,2 mm 2 m/S 594 mmHg 95%
    19:00 -5°C° 0,2 mm 2 m/S 594 mmHg 96%
    20:00 -5°C° 0,1 mm 2 m/S 594 mmHg 95%
    21:00 -5°C° 0,1 mm 2 m/S 594 mmHg 94%
    22:00 -5°C° 0,1 mm 2 m/S 595 mmHg 94%
    23:00 -6°C° 0 mm 2 m/S 594 mmHg 93%
    Mehr zeigen